GW3792 Weather Reports


time (UTC)temp
F
wind
direction
speed
knots
gust
knots
rain 1hr
in
rain 24hr
in
rain mn
in
humidity
%
barometer
mb
20260507202531 71 261 7.0 10.4 0.00 0.01 0.01 68 1010.3
20260507202038 72 273 6.1 15.6 0.00 0.01 0.01 68 1010.2
20260507201622 72 275 7.8 11.3 0.00 0.01 0.01 67 1010.3
20260507201033 72 277 6.1 13.0 0.00 0.01 0.01 67 1010.1
20260507200542 73 334 7.8 13.9 0.00 0.01 0.01 66 1010.0
20260507200131 73 267 8.7 13.9 0.00 0.01 0.01 66 1009.9
20260507195539 73 280 7.0 16.5 0.00 0.01 0.01 66 1010.1
20260507195028 72 280 8.7 16.5 0.00 0.01 0.01 66 1010.2
20260507194632 72 310 9.6 17.4 0.00 0.01 0.01 66 1009.9
20260507194015 72 265 7.8 17.4 0.00 0.01 0.01 66 1010.0
20260507193531 72 286 7.8 14.8 0.00 0.01 0.01 67 1009.8
20260507193131 72 277 8.7 23.5 0.00 0.01 0.01 67 1009.7
20260507192526 72 263 13.9 23.5 0.00 0.01 0.01 66 1009.8
20260507192023 72 257 9.6 15.6 0.00 0.01 0.01 67 1009.8
20260507191635 72 267 8.7 13.0 0.00 0.01 0.01 68 1009.8
20260507191020 72 288 6.1 11.3 0.00 0.01 0.01 68 1009.8
20260507190529 72 261 7.8 12.2 0.00 0.01 0.01 68 1009.8
20260507190140 72 261 7.8 13.9 0.00 0.01 0.01 68 1009.8
20260507185516 72 271 8.7 14.8 0.00 0.01 0.01 67 1009.4
20260507185045 72 261 7.0 14.8 0.00 0.01 0.01 67 1009.5
20260507184625 72 265 7.8 14.8 0.00 0.01 0.01 67 1009.6
20260507184017 73 281 7.8 22.6 0.00 0.01 0.01 67 1009.4
20260507183521 72 262 8.7 22.6 0.00 0.01 0.01 67 1009.4
20260507183057 72 268 9.6 16.5 0.00 0.01 0.01 67 1009.5
20260507182516 72 281 7.8 20.0 0.00 0.01 0.01 67 1009.4
20260507182044 73 265 12.2 22.6 0.00 0.01 0.01 66 1009.2
20260507181622 73 268 9.6 22.6 0.00 0.01 0.01 66 1009.4
20260507181024 73 267 12.2 22.6 0.00 0.01 0.01 65 1009.4
20260507180546 73 262 10.4 18.2 0.00 0.01 0.01 65 1009.4
20260507180123 73 280 12.2 26.9 0.00 0.01 0.01 64 1009.3
20260507175533 73 277 13.9 27.8 0.00 0.01 0.01 64 1009.4
20260507175035 74 288 15.6 27.8 0.00 0.01 0.01 63 1009.6
20260507174638 74 257 13.9 28.7 0.00 0.01 0.01 63 1009.6
20260507174025 75 263 19.1 28.7 0.00 0.01 0.01 62 1009.6
20260507173546 75 266 18.2 28.7 0.00 0.01 0.01 62 1009.6
20260507173132 75 281 12.2 26.9 0.00 0.01 0.01 62 1009.7
20260507172532 75 290 15.6 30.4 0.00 0.01 0.01 63 1009.6
20260507172026 75 262 13.9 36.5 0.00 0.01 0.01 63 1009.8
20260507171606 76 259 20.9 33.0 0.00 0.01 0.01 61 1009.8
20260507171041 77 259 15.6 33.9 0.00 0.01 0.01 60 1009.8
20260507170533 77 261 22.6 33.9 0.00 0.01 0.01 61 1009.7
20260507170117 77 265 18.2 30.4 0.00 0.01 0.01 62 1010.1
20260507165542 77 277 15.6 30.4 0.00 0.01 0.01 61 1010.1
20260507165042 77 265 13.0 28.7 0.00 0.01 0.01 63 1010.0
20260507164641 77 263 17.4 28.7 0.00 0.01 0.01 63 1010.1
20260507164020 76 261 14.8 33.9 0.00 0.01 0.01 63 1010.1
20260507163527 76 277 19.1 33.9 0.00 0.01 0.01 63 1010.2
20260507163133 75 257 20.0 33.9 0.00 0.01 0.01 62 1010.2
20260507162540 75 294 18.2 33.9 0.00 0.01 0.01 64 1010.5
20260507162035 74 261 19.1 31.3 0.00 0.01 0.01 64 1010.6
20260507161631 75 263 18.2 34.8 0.00 0.01 0.01 62 1010.7
20260507161029 75 293 20.0 34.8 0.00 0.01 0.01 62 1010.7
20260507160541 75 261 15.6 38.2 0.00 0.01 0.01 63 1010.8
20260507160137 75 261 18.2 38.2 0.00 0.01 0.01 62 1010.8
20260507155535 75 280 20.9 30.4 0.00 0.01 0.01 62 1010.9
20260507155026 75 268 17.4 33.9 0.00 0.01 0.01 63 1010.9
20260507154639 76 284 18.2 33.9 0.00 0.01 0.01 62 1010.9
20260507154041 76 275 20.0 33.0 0.00 0.01 0.01 64 1011.0
20260507153548 76 272 18.2 29.5 0.00 0.01 0.01 64 1011.1
20260507153133 76 268 12.2 29.5 0.00 0.01 0.01 64 1011.2
20260507152545 75 261 13.0 28.7 0.00 0.01 0.01 65 1011.0
20260507152043 75 263 16.5 29.5 0.00 0.01 0.01 63 1011.1
20260507151635 75 268 20.9 31.3 0.00 0.01 0.01 64 1011.6
20260507151041 74 286 13.9 31.3 0.00 0.01 0.01 66 1011.9
20260507150520 74 269 13.9 27.8 0.00 0.01 0.01 67 1011.9
20260507150142 73 261 16.5 24.3 0.00 0.01 0.01 68 1012.2
20260507145532 72 264 12.2 26.9 0.00 0.01 0.01 69 1012.2
20260507145034 71 261 12.2 23.5 0.00 0.01 0.01 71 1012.2
20260507144635 71 259 13.9 23.5 0.00 0.01 0.01 71 1012.3
20260507144027 71 265 13.0 26.9 0.00 0.01 0.01 71 1012.5
20260507143542 71 306 14.8 26.9 0.00 0.01 0.01 71 1012.8
20260507143103 71 259 12.2 25.2 0.00 0.01 0.01 71 1012.8
20260507142541 72 255 13.0 24.3 0.00 0.01 0.01 70 1013.2
20260507142019 72 294 14.8 26.9 0.00 0.01 0.01 70 1013.2
20260507141634 72 281 17.4 26.9 0.00 0.01 0.01 71 1013.3
20260507141037 72 272 12.2 24.3 0.00 0.01 0.01 72 1013.5
20260507140533 71 257 13.9 26.9 0.00 0.01 0.01 71 1013.6
20260507140141 71 282 14.8 26.9 0.00 0.01 0.01 71 1013.8
20260507135530 71 272 15.6 23.5 0.00 0.01 0.01 71 1013.9
20260507135024 71 263 9.6 20.0 0.00 0.01 0.01 72 1014.0
20260507134634 70 297 10.4 16.5 0.00 0.01 0.01 73 1014.0
20260507134021 70 265 9.6 18.2 0.00 0.01 0.01 72 1014.2
20260507133521 70 263 11.3 18.2 0.00 0.01 0.01 72 1014.2
20260507133153 70 261 7.8 20.0 0.00 0.01 0.01 73 1014.4
20260507132526 70 265 11.3 25.2 0.00 0.01 0.01 73 1014.4
20260507132041 69 293 13.0 25.2 0.00 0.01 0.01 73 1014.4
20260507131647 69 277 8.7 22.6 0.00 0.01 0.01 74 1014.6
20260507131044 70 273 11.3 22.6 0.00 0.01 0.01 74 1014.4
20260507130541 70 288 11.3 21.7 0.00 0.01 0.01 73 1014.5
20260507130154 70 277 11.3 21.7 0.00 0.01 0.01 74 1014.4
20260507125526 70 281 13.9 21.7 0.00 0.01 0.01 75 1014.5
20260507125042 69 282 8.7 15.6 0.00 0.01 0.01 77 1014.7
20260507124653 68 259 10.4 20.0 0.00 0.01 0.01 77 1014.7
20260507124019 68 262 11.3 20.0 0.00 0.01 0.01 77 1014.7
20260507123517 68 271 9.6 20.9 0.00 0.01 0.01 77 1014.9
20260507123201 68 271 10.4 20.9 0.00 0.01 0.01 77 1014.7
20260507122529 67 247 8.7 17.4 0.00 0.01 0.01 77 1014.7
20260507122036 67 261 9.6 17.4 0.00 0.01 0.01 78 1014.8
20260507121700 67 269 9.6 14.8 0.00 0.01 0.01 79 1014.7
20260507121026 66 287 7.0 14.8 0.00 0.01 0.01 80 1015.0
20260507120520 66 261 8.7 13.9 0.00 0.01 0.01 81 1014.9
20260507120155 66 298 7.8 13.9 0.00 0.01 0.01 81 1015.1
20260507115526 66 273 7.8 14.8 0.00 0.01 0.01 82 1015.2
20260507115040 65 347 8.7 14.8 0.00 0.01 0.01 82 1015.4
20260507114707 65 262 6.1 17.4 0.00 0.01 0.01 82 1015.2
20260507114026 65 292 7.8 17.4 0.00 0.01 0.01 81 1015.2
20260507113524 65 273 7.0 16.5 0.00 0.01 0.01 82 1015.3
20260507113126 65 284 7.0 14.8 0.00 0.01 0.01 82 1015.3
20260507112515 65 267 6.1 14.8 0.00 0.01 0.01 82 1015.3
20260507112028 65 254 7.0 12.2 0.00 0.01 0.01 82 1015.4
20260507111700 65 261 5.2 12.2 0.00 0.01 0.01 82 1015.4
20260507111024 65 323 4.3 11.3 0.00 0.01 0.01 82 1015.3
20260507110533 65 286 6.1 11.3 0.00 0.01 0.01 82 1015.4
20260507110205 64 310 6.1 11.3 0.00 0.01 0.01 82 1015.5
20260507105538 64 305 4.3 11.3 0.00 0.01 0.01 82 1015.4
20260507105031 64 9 7.0 13.0 0.01 0.01 0.01 83 1015.4
20260507104655 64 309 6.1 13.0 0.01 0.01 0.01 83 1015.2
20260507104015 64 317 7.8 14.8 0.01 0.01 0.01 83 1015.3
20260507103533 64 338 7.8 14.8 0.01 0.01 0.01 83 1015.4
20260507103155 64 323 5.2 13.9 0.01 0.01 0.01 83 1015.4
20260507102521 64 265 7.0 12.2 0.01 0.01 0.01 82 1015.1
20260507102037 64 269 6.1 12.2 0.01 0.01 0.01 82 1015.3
20260507101649 64 289 5.2 8.7 0.01 0.01 0.01 82 1015.1
20260507101038 64 265 3.5 7.8 0.01 0.01 0.01 82 1015.2
20260507100519 64 57 5.2 12.2 0.01 0.01 0.01 82 1015.4
20260507100154 65 311 5.2 12.2 0.01 0.01 0.01 82 1015.5
20260507095520 65 334 3.5 7.8 0.01 0.01 0.01 81 1015.2
20260507095032 65 257 3.5 7.8 0.00 0.00 0.00 81 1015.2
20260507094625 65 261 3.5 8.7 0.00 0.00 0.00 81 1015.2
20260507094017 65 70 3.5 9.6 0.00 0.00 0.00 81 1015.3
20260507093527 65 51 2.6 9.6 0.00 0.00 0.00 81 1015.4
20260507093112 65 51 3.5 8.7 0.00 0.00 0.00 81 1015.5
20260507092546 65 296 3.5 8.7 0.00 0.00 0.00 81 1015.3
20260507092025 65 310 3.5 9.6 0.00 0.00 0.00 81 1015.3
20260507091653 65 259 4.3 9.6 0.00 0.00 0.00 80 1015.2
20260507091023 65 304 5.2 9.6 0.00 0.00 0.00 80 1015.4
20260507090542 65 317 3.5 8.7 0.00 0.00 0.00 80 1015.3
20260507090157 65 279 4.3 9.6 0.00 0.00 0.00 80 1015.3
20260507085533 65 282 4.3 12.2 0.00 0.00 0.00 79 1015.5
20260507085016 65 54 5.2 11.3 0.00 0.00 0.00 79 1015.5
20260507084624 65 284 6.1 11.3 0.00 0.00 0.00 79 1015.4
20260507084032 65 300 4.3 12.2 0.00 0.00 0.00 79 1015.4
20260507083517 65 323 4.3 12.2 0.00 0.00 0.00 79 1015.5
20260507083147 65 309 3.5 9.6 0.00 0.00 0.00 79 1015.6
20260507082539 65 268 5.2 9.6 0.00 0.00 0.00 79 1015.5
20260507082023 65 268 3.5 8.7 0.00 0.00 0.00 79 1015.7
20260507081644 65 259 5.2 10.4 0.00 0.00 0.00 79 1015.5
20260507081038 65 289 5.2 10.4 0.00 0.00 0.00 80 1015.6
20260507080532 65 286 3.5 7.8 0.00 0.00 0.00 80 1015.7
20260507080151 65 41 2.6 7.8 0.00 0.00 0.00 80 1015.4
20260507075517 65 291 2.6 8.7 0.00 0.00 0.00 80 1015.7
20260507075033 65 55 3.5 8.7 0.00 0.00 0.00 80 1015.9
20260507074630 65 334 2.6 7.8 0.00 0.00 0.00 81 1016.1
20260507074017 65 293 3.5 7.0 0.00 0.00 0.00 81 1015.9
20260507073524 65 262 3.5 7.0 0.00 0.00 0.00 81 1016.1
20260507073135 65 319 3.5 8.7 0.00 0.00 0.00 81 1016.0
20260507072536 65 282 4.3 10.4 0.00 0.00 0.00 81 1016.1
20260507072031 65 265 2.6 10.4 0.00 0.00 0.00 81 1016.3
20260507071630 64 304 3.5 8.7 0.00 0.00 0.00 82 1016.3
20260507071027 64 296 3.5 7.8 0.00 0.00 0.00 82 1016.3
20260507070542 64 309 3.5 7.8 0.00 0.00 0.00 81 1016.4
20260507070116 64 24 3.5 11.3 0.00 0.00 0.00 81 1016.5
20260507065539 65 314 4.3 11.3 0.00 0.00 0.00 81 1016.5
20260507065033 65 332 4.3 9.6 0.00 0.00 0.00 81 1016.4
20260507064700 65 265 3.5 9.6 0.00 0.00 0.00 80 1016.5
20260507064041 65 317 4.3 10.4 0.00 0.00 0.00 80 1016.7
20260507063527 65 265 5.2 10.4 0.00 0.00 0.00 80 1016.4
20260507063141 65 275 5.2 12.2 0.00 0.00 0.00 80 1016.4
20260507062519 64 262 6.1 12.2 0.00 0.00 0.00 80 1016.5
20260507062033 64 272 4.3 10.4 0.00 0.00 0.00 80 1016.6
20260507061926 64 265 3.5 9.6 0.00 0.00 0.00 80 1016.7
20260507061757 64 265 3.5 9.6 0.00 0.00 0.00 80 1016.7
20260507061033 64 300 4.3 9.6 0.00 0.00 0.00 80 1016.9
20260507060535 64 344 6.1 12.2 0.00 0.00 0.00 80 1016.9
20260507060233 64 360 6.1 12.2 0.00 0.00 0.00 80 1017.0
20260507055540 64 309 5.2 10.4 0.00 0.01 0.00 80 1017.1
20260507055033 64 280 6.1 12.2 0.00 0.01 0.00 81 1016.9
20260507054801 63 295 6.1 13.9 0.00 0.01 0.00 82 1017.2
20260507054019 62 302 6.1 13.9 0.00 0.01 0.00 84 1017.1
20260507053537 61 273 4.3 7.0 0.00 0.01 0.00 84 1017.2
20260507053241 61 265 2.6 6.1 0.00 0.01 0.00 83 1017.4
20260507052537 61 268 3.5 6.1 0.00 0.01 0.00 83 1017.4
20260507052042 61 273 2.6 7.0 0.00 0.01 0.00 83 1017.4
20260507051802 61 257 4.3 7.0 0.00 0.01 0.00 83 1017.5
20260507051022 61 269 3.5 7.0 0.00 0.01 0.00 83 1017.6
20260507050542 62 261 3.5 6.1 0.00 0.01 0.00 84 1017.6
20260507050322 62 271 2.6 8.7 0.00 0.01 0.00 85 1017.7
20260507045538 61 265 4.3 8.7 0.00 0.01 0.00 87 1017.7
20260507045037 60 271 0.9 7.8 0.00 0.01 0.00 89 1017.7
20260507044736 59 76 0.9 1.7 0.00 0.01 0.00 90 1018.1
20260507044048 59 76 0.9 1.7 0.00 0.01 0.00 90 1018.1
20260507043531 59 76 0.9 1.7 0.00 0.01 0.00 90 1018.3
20260507043307 59 76 0.9 1.7 0.00 0.01 0.00 90 1018.5
20260507042542 59 76 0.9 1.7 0.00 0.01 0.00 90 1018.3
20260507042029 59 76 0.9 1.7 0.00 0.01 0.00 90 1018.3
20260507041748 59 76 0.9 1.7 0.00 0.01 0.00 90 1018.6
20260507041029 59 76 0.9 1.7 0.00 0.01 0.00 90 1018.5
20260507040525 59 76 0.9 1.7 0.00 0.01 0.00 91 1018.6
20260507040304 59 76 0.9 1.7 0.00 0.01 0.00 91 1018.6
20260507035519 59 76 0.9 1.7 0.00 0.01 0.00 91 1018.8
20260507035025 59 76 0.9 1.7 0.00 0.01 0.00 91 1018.8
20260507034826 59 76 0.9 1.7 0.00 0.01 0.00 91 1018.9
20260507034045 59 76 0.9 1.7 0.00 0.01 0.00 91 1018.9
20260507033532 59 76 0.9 1.7 0.00 0.01 0.00 91 1019.1
20260507033204 58 76 0.9 1.7 0.00 0.01 0.00 90 1019.1
20260507032538 58 76 0.9 1.7 0.00 0.01 0.00 90 1019.1
20260507032041 58 76 0.9 1.7 0.00 0.01 0.00 90 1019.3
20260507031647 58 76 0.9 1.7 0.00 0.01 0.00 90 1019.3
20260507031026 58 76 0.9 1.7 0.00 0.01 0.00 90 1019.3
20260507030542 59 76 0.0 1.7 0.00 0.01 0.00 90 1019.3
20260507030230 59 93 0.0 1.7 0.00 0.01 0.00 90 1019.6
20260507025525 59 137 0.0 0.9 0.00 0.01 0.01 90 1019.4
20260507025041 59 93 0.0 0.9 0.00 0.01 0.01 91 1019.5
20260507024655 59 51 0.0 0.9 0.00 0.01 0.01 90 1019.6
20260507024023 58 34 0.0 0.9 0.00 0.01 0.01 90 1019.6
20260507023536 58 93 0.0 0.9 0.00 0.01 0.01 90 1019.7
20260507023202 58 93 0.0 0.9 0.00 0.01 0.01 90 1019.8
20260507022545 58 178 0.0 0.9 0.00 0.01 0.01 90 1019.8
20260507022025 58 9 0.0 0.9 0.00 0.01 0.01 89 1019.9
20260507021651 58 93 0.0 0.9 0.00 0.01 0.01 89 1019.8
20260507021028 58 51 0.0 0.9 0.00 0.01 0.01 89 1019.6
20260507020538 58 93 0.0 0.9 0.00 0.01 0.01 89 1019.7
20260507020230 58 93 0.0 0.9 0.00 0.01 0.01 89 1019.7
20260507015531 58 51 0.0 0.9 0.00 0.01 0.01 89 1019.9
20260507015033 58 51 0.0 0.9 0.00 0.01 0.01 89 1019.9
20260507014642 58 265 0.0 0.9 0.00 0.01 0.01 89 1020.0
20260507014041 59 93 0.0 0.9 0.00 0.01 0.01 89 1020.0
20260507013525 59 93 0.0 0.9 0.00 0.01 0.01 89 1020.1
20260507013209 59 51 0.0 0.9 0.00 0.01 0.01 89 1020.2
20260507012538 58 309 0.0 0.9 0.00 0.01 0.01 89 1020.2
20260507012044 58 137 0.0 0.9 0.00 0.01 0.01 88 1020.1
20260507011652 58 51 0.0 0.0 0.00 0.01 0.01 88 1020.2
20260507011040 58 93 0.0 0.9 0.00 0.01 0.01 87 1020.2
20260507010524 59 93 0.0 0.9 0.00 0.01 0.01 87 1020.3
20260507010207 59 51 0.0 0.0 0.00 0.01 0.01 87 1020.2
20260507005542 59 93 0.0 0.0 0.00 0.01 0.01 87 1020.0
20260507005033 59 137 0.0 0.0 0.00 0.01 0.01 86 1020.3
20260507004617 59 93 0.0 0.9 0.00 0.01 0.01 86 1020.2
20260507004029 59 178 0.0 0.9 0.00 0.01 0.01 86 1020.0
20260507003526 60 93 0.0 0.9 0.00 0.01 0.01 87 1020.2
20260507003149 60 137 0.0 1.7 0.00 0.01 0.01 87 1020.2
20260507002539 60 178 0.0 1.7 0.00 0.01 0.01 87 1020.1
20260507002031 60 93 0.0 1.7 0.00 0.01 0.01 87 1020.2
20260507001707 60 137 0.0 0.9 0.00 0.01 0.01 86 1020.3
20260507001036 61 51 0.0 0.9 0.00 0.01 0.01 87 1020.4
20260507000544 61 137 0.0 0.9 0.00 0.01 0.01 87 1020.4
20260507000240 61 51 0.0 0.0 0.00 0.01 0.01 86 1020.3
20260506235530 61 9 0.0 0.9 0.00 0.01 0.01 86 1020.2
20260506235025 61 9 0.0 0.9 0.00 0.01 0.01 86 1020.3
20260506234643 61 265 0.0 0.9 0.00 0.01 0.01 86 1020.2
20260506234022 62 51 0.0 1.7 0.00 0.01 0.01 87 1020.4
20260506233536 62 51 0.0 1.7 0.00 0.01 0.01 87 1020.3
20260506233121 62 178 0.0 1.7 0.00 0.01 0.01 86 1020.3
20260506232543 62 178 0.0 1.7 0.00 0.01 0.01 86 1020.3
20260506232041 62 265 0.0 0.9 0.00 0.01 0.01 86 1020.5
20260506231724 62 67 0.0 0.9 0.00 0.01 0.01 85 1020.4
20260506231024 62 51 0.0 0.9 0.00 0.01 0.01 85 1020.5
20260506230526 63 51 0.0 0.9 0.00 0.01 0.01 85 1020.7
20260506230220 63 137 0.0 1.7 0.00 0.01 0.01 85 1020.5
20260506225538 63 291 0.0 1.7 0.00 0.01 0.01 84 1020.5
20260506225024 63 51 0.0 0.9 0.00 0.01 0.01 84 1020.5
20260506224705 63 265 0.0 0.9 0.00 0.01 0.01 84 1020.5
20260506224029 63 67 0.0 0.9 0.00 0.01 0.01 84 1020.6
20260506223525 64 153 0.0 0.9 0.00 0.01 0.01 83 1020.6
20260506223152 64 137 0.0 0.9 0.00 0.01 0.01 83 1020.6
20260506222539 64 76 0.0 1.7 0.00 0.01 0.01 83 1020.6
20260506222029 65 325 0.0 1.7 0.00 0.01 0.01 83 1020.5
20260506221659 65 51 0.0 1.7 0.00 0.01 0.01 82 1020.4
20260506221029 65 93 0.0 0.9 0.00 0.01 0.01 83 1020.4
20260506220528 65 51 0.0 0.9 0.00 0.01 0.01 83 1020.4
20260506220143 65 9 0.0 2.6 0.00 0.01 0.01 83 1020.3
20260506215541 66 238 0.0 2.6 0.00 0.01 0.01 82 1020.1
20260506215030 66 9 0.0 2.6 0.00 0.01 0.01 81 1020.0
20260506214708 66 9 0.0 3.5 0.00 0.01 0.01 80 1020.0
20260506214024 67 51 0.9 3.5 0.00 0.01 0.01 79 1020.2
20260506213525 67 46 1.7 2.6 0.00 0.01 0.01 79 1020.0
20260506213212 67 9 0.0 3.5 0.00 0.01 0.01 78 1020.0
20260506212527 68 34 1.7 3.5 0.00 0.01 0.01 78 1019.9
20260506212028 69 38 1.7 2.6 0.00 0.01 0.01 77 1020.2
20260506211644 69 93 0.0 1.7 0.00 0.01 0.01 76 1020.2
20260506211032 70 67 0.0 0.9 0.00 0.01 0.01 75 1020.2
20260506210526 70 137 0.0 1.7 0.00 0.01 0.01 74 1020.3
20260506210205 71 178 0.0 2.6 0.00 0.01 0.01 72 1020.3
20260506205525 71 51 0.0 2.6 0.00 0.01 0.01 71 1020.3
20260506205027 72 76 0.9 2.6 0.00 0.01 0.01 70 1020.2
20260506204629 73 80 0.9 1.7 0.00 0.01 0.01 70 1020.1
20260506204042 73 137 0.0 0.9 0.00 0.01 0.01 70 1020.1
20260506203545 74 178 0.0 0.9 0.00 0.01 0.01 71 1020.1
20260506203152 74 51 0.0 1.7 0.00 0.01 0.01 70 1020.2